Regional Weather Roundup
Issued by NWS

Home | Current Version | Previous Version | Text Only | Print | Product List | Glossary Off
Versions: 1 2 3 4 5 6 7 8 9 10 11 12 13 14 15 16 17 18 19 20 21 22 23 24 25 26 27 28 29 30 31 32 33 34 35 36 37 38 39 40 41 42 43 44 45 46 47

000
ASUS43 KDMX 141607
RWRIA

WEATHER ROUNDUP FOR IOWA
NATIONAL WEATHER SERVICE DES MOINES IA
1100 AM CDT SUN SEP 14 2014

NOTE: "FAIR" INDICATES FEW OR NO CLOUDS BELOW 12,000 FEET WITH NO
SIGNIFICANT WEATHER AND/OR OBSTRUCTIONS TO VISIBILITY.

* - THESE STATIONS ARE NOT NWS STATIONS...THUS NOT UNDER NWS
QUALITY CONTROL.  THEY ALSO DO NOT REPORT WEATHER SUCH
AS PRECIPITATION OR FOG.

IAZ001>003-012>014-020>022-031>034-043>046-141700-
   NORTHWEST IOWA

CITY           SKY/WX    TMP DP  RH WIND       PRES   REMARKS
CARROLL *      SUNNY     63  48  59 SW10G17   30.21S
CHEROKEE *     MOSUNNY   55  50  82 S6        30.19S
DENISON *      SUNNY     59  48  67 SW7       30.20R
LE MARS *      PTSUNNY   54  48  82 VRB5      30.21R
ORANGE CITY *  SUNNY     54  46  76 SW3       30.20R
SHELDON *      MOSUNNY   57  46  67 VRB5      30.17F
SIOUX CITY     PTSUNNY   57  48  72 CALM      30.20S
SPENCER        MOSUNNY   57  46  66 W6        30.18F
STORM LAKE *   SUNNY     59  52  77 SW10      30.20R
$$

IAZ055>058-069>071-079>083-090>094-141700-
   SOUTHWEST IOWA

CITY           SKY/WX    TMP DP  RH WIND       PRES   REMARKS
ATLANTIC *     SUNNY     61  50  67 S9        30.21F
AUDUBON *      SUNNY     63  54  72 S6        30.22F
CLARINDA *     SUNNY     64  50  59 SW7       30.24F
COUNCIL BLFS * SUNNY     61  54  77 SW9       30.21S
CRESTON *      SUNNY     63  48  59 SW10      30.25S
HARLAN  *      SUNNY     61  50  67 S8        30.25S
LAMONI         SUNNY     61  47  59 S8        30.25F
SHENANDOAH *   SUNNY     64  50  59 S12       30.23S
$$

IAZ047>049-059>061-072>074-084-141700-
   CENTRAL IOWA

CITY           SKY/WX    TMP DP  RH WIND       PRES   REMARKS
AMES           SUNNY     62  48  60 SW13      30.23S
ANKENY *       SUNNY     61  48  63 SW10      30.23F
CHARITON *     SUNNY     61  46  59 S12       30.25F
DES MOINES     MOSUNNY   63  48  58 SW13      30.24F
GRINNELL*      CLOUDY    57  46  67 S8        30.25F
KNOXVILLE *    SUNNY     61  46  59 SW9       30.23F
MARSHALLTOWN   MOSUNNY   60  48  64 SW10      30.22F
PELLA *        SUNNY     63  48  59 S7        30.26F
PERRY *          N/A     63  48  59 SW12      30.22F
$$

IAZ004>006-015-016-023>025-035-036-141700-
   NORTH CENTRAL IOWA

CITY           SKY/WX    TMP DP  RH WIND       PRES   REMARKS
ALGONA *       SUNNY     59  48  67 SW9       30.19F
CLARION *        N/A     61  46  59 SW12G17   30.20S
ESTHERVILLE    SUNNY     56  45  66 W3        30.18S
FORT DODGE *     N/A    N/A N/A N/A MISG        N/A
MASON CITY     SUNNY     61  48  62 SW14      30.20S
FOREST CITY *  SUNNY     59  46  63 SW9       30.18F
IOWA FALLS *     N/A     61  46  59 S13       30.22F
$$

IAZ007>011-017>019-026>030-037>042-050>054-066-141700-
   NORTHEAST IOWA

CITY           SKY/WX    TMP DP  RH WIND       PRES   REMARKS
CEDAR RAPIDS   CLOUDY    55  46  71 S10       30.27S
CHARLES CITY * SUNNY     61  46  59 S13       30.20F
CLINTON *      PTSUNNY   59  43  55 SW10      30.31F
DECORAH *      SUNNY     59  45  58 SW13G20   30.20S
DUBUQUE        SUNNY     57  46  66 SW14      30.27F
MONTICELLO *   MOSUNNY   59  45  58 SW15      30.27S
OELWEIN *      CLOUDY    59  45  58 SW14G21   30.24F
WATERLOO       CLOUDY    60  47  61 S13       30.22F
$$

IAZ064-065-067-068-078-141700-
   EAST CENTRAL IOWA

CITY           SKY/WX    TMP DP  RH WIND       PRES   REMARKS
DAVENPORT      PTSUNNY   59  43  55 SW10      30.29F
IOWA CITY      MOSUNNY   58  46  64 SW9       30.29F
MT. PLEASANT * SUNNY     63  43  48 SW9       30.30S
MUSCATINE *    CLOUDY    61  45  55 SW9       30.29F
QUAD CITIES    PTSUNNY   59  43  55 SW10      30.29F
$$

IAZ062-063-075>077-085>089-095>099-141700-
   SOUTHEAST IOWA

CITY           SKY/WX    TMP DP  RH WIND       PRES   REMARKS
BURLINGTON     CLOUDY    58  47  66 S6        30.30F
FAIRFIELD *    SUNNY     61  45  55 S8        30.28F
FORT MADISON * MOSUNNY   63  45  51 S6        30.30F
KEOKUK *       MOSUNNY   61  46  59 VRB7      30.29F HAZE
OSKALOOSA *    CLOUDY    61  46  59 SW8       30.27F
CENTERVILLE *  MOSUNNY   61  48  63 S6        30.28F
OTTUMWA        MOSUNNY   61  46  57 S7        30.27F
WASHINGTON *   MOSUNNY   59  48  67 SW10      30.28F
$$

ABBREVIATIONS USED IN REMARKS
   TC - TEMPERATURES IN CELSIUS
  WCI - WIND CHILL INDEX
   HX - HEAT INDEX
  VSB - VISIBILITY
$$



USA.gov is the U.S. government's official web portal to all federal, state and local government web resources and services.